Estación municipal de St. Hilari Sacalm (La Selva, Guilleries)

Consulta los datos en tiempo real de la estación municipal de St. Hilari Sacalm





Hora UTC 05:10
Temperatura 6.9 ºC
Humedad 90.3 %
Presión 1012.8 hPa
Pluja 0.0 mm
Velocidad viento 0.0 km/h
Dirección viento W
Radiación solar 23.5 W/m²

Webcam

Datos diarios 2026-05-08



Hora UTC (invierno +1h; verano +2h)
Temperatura (ºC) Humedad (%) Presión (hPa) Velocidad viento (km/h) Precipitación (mm) Radiación solar (W/m²)
Hora UTC Aire Humedad Presión Vel. Dir. Vel. Max Dir. Intent. máx 5 min. Rad. Sol.
00:05 9.3 90.6 1013.5 7.1 WNW 7.1 W 0.0 0.1
00:10 9.4 88.8 1013.5 3.3 WNW 14.2 WNW 0.0 0.1
00:15 9.4 87.5 1013.4 6.0 NW 16.9 WNW 0.0 0.1
00:20 9.4 86.9 1013.4 3.9 WNW 14.2 NW 0.0 0.1
00:25 9.4 86.4 1013.3 1.8 WNW 14.2 NW 0.0 0.1
00:30 9.3 86.5 1013.3 2.4 WNW 11.5 WNW 0.0 0.1
00:35 9.2 86.4 1013.3 1.0 WNW 6.1 WNW 0.0 0.1
00:40 9.2 86.3 1013.3 0.5 W 6.1 W 0.0 0.1
00:45 9.1 86.4 1013.3 0.0 NNE 0.0 W 0.0 0.1
00:50 9.1 86.8 1013.3 0.0 NNE 0.0 WSW 0.0 0.1
00:55 9.1 87.5 1013.3 0.0 NNE 0.0 SW 0.0 0.1
01:00 9.1 88.0 1013.2 0.3 W 8.8 W 0.0 0.1
01:05 9.1 88.4 1013.2 0.6 WNW 6.1 WNW 0.0 0.1
01:10 9.3 88.8 1013.2 0.3 WNW 6.1 NW 0.0 0.1
01:15 9.4 88.8 1013.1 0.0 NNE 0.0 WNW 0.0 0.1
01:20 9.4 88.7 1013.1 0.0 NNE 0.0 NW 0.0 0.1
01:25 9.4 89.0 1013.0 0.0 NNE 0.0 W 0.0 0.1
01:30 9.4 89.1 1013.0 0.0 NNE 0.0 WNW 0.0 0.1
01:35 9.4 89.2 1013.0 0.0 NW 3.4 NW 0.0 0.1
01:40 9.5 89.5 1013.0 0.0 NW 3.4 NW 0.0 0.1
01:45 9.4 89.5 1012.9 0.2 NNW 8.8 NW 0.0 0.1
01:50 9.3 89.6 1012.9 0.2 NNW 8.8 NW 0.0 0.1
01:55 9.2 89.7 1012.9 0.0 NNE 0.0 NW 0.0 0.1
02:00 9.1 90.0 1012.9 0.1 NNW 6.1 NW 0.0 0.1
02:05 9.1 90.2 1012.8 2.1 WNW 14.2 W 0.0 0.1
02:10 9.2 90.4 1012.8 0.3 WNW 8.8 W 0.0 0.1
02:15 9.3 90.1 1012.8 2.2 WNW 14.2 W 0.0 0.1
02:20 9.4 89.6 1012.8 1.2 WNW 11.5 WNW 0.0 0.1
02:25 9.5 89.0 1012.7 2.2 WNW 11.5 W 0.0 0.1
02:30 9.6 88.4 1012.7 3.2 WNW 14.2 NW 0.0 0.1
02:35 9.5 88.5 1012.7 1.3 NW 11.5 WNW 0.0 0.1
02:40 9.4 88.8 1012.6 3.3 NW 14.2 NW 0.0 0.1
02:45 9.3 89.2 1012.6 0.8 W 8.8 WNW 0.0 0.1
02:50 9.3 89.3 1012.5 1.4 W 11.5 NW 0.0 0.1
02:55 9.3 89.4 1012.6 2.6 WNW 11.5 W 0.0 0.1
03:00 9.4 88.8 1012.6 3.8 WNW 16.9 W 0.0 0.1
03:05 9.5 87.9 1012.5 8.6 NW 16.9 W 0.0 0.1
03:10 9.5 86.8 1012.5 9.6 NW 16.9 NNW 0.0 0.1
03:15 9.5 86.1 1012.4 8.0 NW 19.6 NW 0.0 0.1
03:20 9.4 86.1 1012.5 3.8 WNW 14.2 SW 0.0 0.1
03:25 9.3 86.5 1012.5 6.5 WNW 16.9 WNW 0.0 0.1
03:30 9.2 86.2 1012.4 0.8 NW 11.5 NNW 0.0 0.1
03:35 9.1 86.6 1012.4 4.3 NW 16.9 WNW 0.0 0.1
03:40 9.2 87.5 1012.4 6.4 NW 16.9 NW 0.0 0.1
03:45 9.1 87.3 1012.4 2.3 WNW 11.5 WNW 0.0 0.1
03:50 9.0 87.2 1012.4 0.1 WSW 8.8 WSW 0.0 0.1
03:55 8.8 87.3 1012.5 0.2 WSW 6.1 WSW 0.0 0.1
04:00 8.7 87.3 1012.5 0.1 W 6.1 W 0.0 0.1
04:05 8.5 87.4 1012.5 0.0 WSW 3.4 WSW 0.0 0.1
04:10 8.3 87.4 1012.5 0.0 NNE 0.0 W 0.0 0.1
04:15 8.3 86.1 1012.5 0.0 NNE 0.0 WNW 0.0 0.1
04:20 8.1 85.1 1012.5 0.0 NNE 0.0 WNW 0.0 0.2
04:25 7.9 85.4 1012.6 0.0 NNE 0.0 WSW 0.0 0.4
04:30 7.6 86.6 1012.6 0.0 NNE 0.0 SW 0.0 0.9
04:35 7.4 87.9 1012.6 0.0 NNE 0.0 WSW 0.0 1.7
04:40 7.2 88.5 1012.6 0.0 SW 3.4 SW 0.0 2.7
04:45 7.1 89.3 1012.6 0.0 W 3.4 W 0.0 3.9
04:50 7.0 89.6 1012.7 0.0 NNE 0.0 WSW 0.0 5.3
04:55 7.0 89.9 1012.7 0.0 NNE 0.0 W 0.0 6.8
05:00 6.9 90.0 1012.7 0.0 WNW 3.4 WNW 0.0 9.1
05:05 6.9 90.3 1012.8 0.0 W 3.4 W 0.0 12.1
05:10 6.9 90.3 1012.8 0.0 W 3.4 W 0.0 23.5
Máxima 9.6 90.6 1013.5 9.6 NW 19.6 NW 0.0 23.5
Mínima 6.9 85.1 1012.4
Total 0.0